Location: Clegg Observatory
(38.9178°N, 78.6069°W)
Time: 15:36:56
(UTC-04:00)

Cosmos 1151 Rocket - Visible Passes

Search period start: 31 July 2014 00:00
Search period end: 10 August 2014 00:00
Orbit: 595 x 618 km, 82.5° (Epoch: 30 July)

Date Brightness Start Highest point End Pass type
(mag) Time Alt. Az. Time Alt. Az. Time Alt. Az.
31 Jul 3.0 04:27:44 29° S 04:29:57 89° E 04:34:21 10° N visible
01 Aug 5.7 03:04:36 10° ESE 03:06:20 12° E 03:08:03 10° ENE visible
01 Aug 3.3 04:41:31 30° SW 04:43:24 51° W 04:47:42 10° N visible
02 Aug 5.1 03:18:22 19° ESE 03:19:33 21° E 03:22:49 10° NE visible
02 Aug 4.0 04:55:17 23° WSW 04:56:56 30° WNW 05:00:48 10° NNW visible
03 Aug 4.2 03:32:06 33° ESE 03:32:50 35° E 03:36:50 10° NNE visible
03 Aug 4.7 05:09:00 15° W 05:10:32 18° WNW 05:13:33 10° NNW visible
04 Aug 3.3 03:45:48 60° ESE 03:46:11 63° E 03:50:31 10° NNE visible
04 Aug 5.2 05:23:20 10° W 05:24:13 11° WNW 05:25:06 10° WNW visible
05 Aug 2.9 03:59:29 73° W 03:59:36 74° W 04:03:59 10° N visible
06 Aug 5.6 02:36:14 15° E 02:36:14 15° E 02:38:21 10° NE visible
06 Aug 3.6 04:13:09 41° WNW 04:13:09 41° WNW 04:17:14 10° N visible
07 Aug 5.0 02:49:53 24° ENE 02:49:53 24° ENE 02:52:43 10° NE visible
07 Aug 4.4 04:26:47 24° WNW 04:26:47 24° WNW 04:30:13 10° NNW visible
08 Aug 4.4 03:03:30 36° NE 03:03:30 36° NE 03:06:35 10° NNE visible
08 Aug 5.0 04:40:25 15° WNW 04:40:25 15° WNW 04:42:44 10° NW visible
09 Aug 4.0 03:17:07 45° NNE 03:17:07 45° NNE 03:20:11 10° N visible
